Zurück zum Katalog

STARLINK-4293

AktivKommunikationVLEO
NORAD 52989·PAYLOAD·🇺🇸 United States

Gestartet Jul 7, 2022 von Cape Canaveral Space Force Station

Loading…

Nächste Überflüge (nächste 24 Stunden)

TLE

AktuellSource: CelesTrak SupGP

Epoche: Sep 14, 2026, 21:59 UTC

1 52989C 22076D   26257.91645833  .00453110  00000+0  10522-2 0  2573
2 52989  53.2122 287.2954 0001838  69.1376 129.6344 15.96151340    14

Verfolge STARLINK-4293 in Echtzeit mit AllMySat

Download on the App Store